[[{"header":{"parameterUnit":"m.s-1","parameterCategory":1,"la1":30.2992,"la2":30.254,"lo1":-89.0895,"lo2":-89.0443,"dy":0.0025,"dx":0.0025,"nx":19,"ny":19,"refTime":"2026-04-16T03:00:00:Z","depth":0,"parameterNumber":2,"parameterNumberName":"U-component_of_WINDS"},"data":[0,0,0,-2.0832,-2.0834,-2.0956,-2.0957,-2.1106,-2.1107,0,0,0,0,0,0,0,0,0,0,0,-2.0788,-2.0789,-2.0831,-2.0834,-2.0956,-2.0957,-2.1106,-2.1107,0,0,0,0,0,0,0,0,0,0,0,-2.0788,-2.0789,-2.079,-2.0835,-2.0956,-2.0957,-2.1106,-2.1017,0,0,0,0,0,0,0,0,0,0,-2.0899,-2.0852,-2.0789,-2.079,-2.0835,-2.0956,-2.0957,-2.1012,-2.1022,-2.1047,0,-2.1064,0,-2.1088,-2.1117,-2.1117,0,0,0,-2.084,-2.0843,-2.0883,-2.079,-2.0836,-2.0956,-2.0903,-2.1018,-2.1029,-2.106,-2.1067,-2.1073,-2.1091,-2.1117,-2.1118,-2.1236,-2.1236,0,0,-2.0833,-2.0807,-2.0875,-2.0889,-2.0867,-2.0899,-2.0907,-2.1025,-2.1032,-2.1067,-2.1076,-2.1093,-2.1118,-2.1119,-2.1235,-2.1236,0,0,0,-2.081,-2.0802,-2.0839,-2.0883,-2.0905,-2.0902,-2.0911,-2.1026,-2.104,-2.1078,-2.1095,-2.1119,-2.1121,-2.1235,-2.1235,-2.1221,0,0,0,-2.0806,-2.0788,-2.0835,-2.082,-2.0903,-2.0967,-2.091,-2.1032,-2.1046,-2.1094,-2.1119,-2.1122,-2.1235,-2.1235,-2.1221,-2.1219,0,0,0,-2.0783,-2.0786,-2.0801,-2.0819,-2.087,-2.0965,-2.0986,-2.1036,-2.1056,-2.1117,-2.1123,-2.1235,-2.1235,-2.1221,-2.1219,-2.1242,0,0,0,-2.0751,-2.0787,-2.08,-2.0848,-2.0869,-2.0955,-2.0986,-2.1053,-2.1103,-2.112,-2.1235,-2.1235,-2.1221,-2.1219,-2.1241,-2.1255,-2.1259,0,0,-2.0782,-2.079,-2.0821,-2.0836,-2.0912,-2.0939,-2.1016,-2.1088,-2.112,-2.1196,-2.1199,-2.1221,-2.1219,-2.1242,-2.1289,-2.1291,0,0,0,-2.0822,-2.0843,-2.0869,-2.0915,-2.097,-2.1018,-2.1082,-2.1109,-2.1175,-2.1152,-2.1237,-2.1237,-2.1251,-2.1259,-2.1261,-2.1276,-2.1238,-2.1238,-2.1238,-2.0827,-2.0864,-2.0918,-2.097,-2.1015,-2.108,-2.1121,-2.1169,-2.1195,-2.1214,-2.1236,-2.126,-2.1269,-2.127,-2.1285,-2.1248,-2.1248,-2.1248,-2.1248,-2.0876,-2.0912,-2.0946,-2.1008,-2.1049,-2.1104,-2.117,-2.1187,-2.1245,-2.1246,-2.1261,-2.1258,-2.1272,-2.1287,-2.1247,-2.1247,-2.1248,-2.1248,-2.1248,-2.0883,-2.0907,-2.0939,-2.1009,-2.1061,-2.1115,-2.1169,-2.1205,-2.1239,-2.1254,-2.1282,-2.1282,-2.1287,-2.1265,-2.1265,-2.1265,-2.1265,-2.1265,-2.1265,-2.0877,-2.0913,-2.0953,-2.1016,-2.1051,-2.1102,-2.117,-2.1206,-2.1256,-2.1278,-2.1279,-2.1303,-2.1266,-2.1255,-2.1267,-2.1266,-2.1266,-2.1266,-2.1266,-2.0911,-2.0909,-2.097,-2.1005,-2.1083,-2.1132,-2.1178,-2.1249,-2.1285,-2.1311,-2.1333,-2.13,-2.1312,-2.131,-2.1302,-2.1324,-2.1324,-2.1324,-2.1324,-2.0916,-2.0925,-2.0996,-2.105,-2.1107,-2.1154,-2.1226,-2.1281,-2.1337,-2.1363,-2.1365,-2.1358,-2.1355,-2.1368,-2.1365,-2.1358,-2.1394,-2.1394,-2.1394,-2.0939,-2.0955,-2.1007,-2.106,-2.1124,-2.1179,-2.1248,-2.1311,-2.1376,-2.1398,-2.1383,-2.138,-2.1369,-2.1363,-2.1382,-2.1377,-2.1364,0,0]},{"header":{"parameterUnit":"m.s-1","parameterCategory":1,"la1":30.2992,"la2":30.254,"lo1":-89.0895,"lo2":-89.0443,"dy":0.0025,"dx":0.0025,"nx":19,"ny":19,"refTime":"2026-04-16T03:00:00:Z","depth":0,"parameterNumber":3,"parameterNumberName":"V-component_of_WINDS"},"data":[0,0,0,4.8277,4.8278,4.8292,4.8292,4.8321,4.8321,0,0,0,0,0,0,0,0,0,0,0,4.8279,4.8279,4.8277,4.8278,4.8292,4.8292,4.8321,4.8321,0,0,0,0,0,0,0,0,0,0,0,4.8279,4.8279,4.8279,4.8278,4.8292,4.8292,4.8321,4.8306,0,0,0,0,0,0,0,0,0,0,4.829,4.8297,4.8279,4.8279,4.8278,4.8292,4.8292,4.8305,4.8307,4.8318,0,4.833,0,4.8326,4.8324,4.8324,0,0,0,4.8273,4.8296,4.8295,4.828,4.8278,4.8292,4.8285,4.8306,4.8308,4.8321,4.833,4.8331,4.8326,4.8324,4.8324,4.8404,4.8405,0,0,4.8273,4.8284,4.8293,4.8296,4.8294,4.8284,4.8285,4.8307,4.8318,4.833,4.8331,4.8327,4.8324,4.8324,4.8404,4.8404,0,0,0,4.8273,4.8284,4.8282,4.8295,4.8297,4.8285,4.8286,4.8317,4.8315,4.8331,4.8327,4.8324,4.8325,4.8403,4.8404,4.8444,0,0,0,4.8273,4.8284,4.8282,4.8289,4.8297,4.8307,4.8295,4.8314,4.8316,4.8327,4.8324,4.8325,4.8402,4.8403,4.8442,4.8461,0,0,0,4.8276,4.8284,4.8289,4.829,4.8296,4.8307,4.8306,4.8314,4.8314,4.8324,4.8325,4.8402,4.8403,4.8439,4.8457,4.8486,0,0,0,4.8282,4.8323,4.8289,4.8334,4.8296,4.8332,4.8306,4.8331,4.8345,4.8324,4.8402,4.8404,4.8439,4.8455,4.8484,4.8512,4.8525,0,0,4.834,4.833,4.8356,4.8326,4.837,4.8328,4.8378,4.8379,4.8369,4.8393,4.8395,4.8442,4.8457,4.8485,4.8594,4.8605,0,0,0,4.8378,4.8396,4.8405,4.8419,4.8422,4.8425,4.8418,4.8418,4.8438,4.8384,4.846,4.8468,4.8485,4.8498,4.8507,4.852,4.841,4.841,4.841,4.8475,4.8462,4.8503,4.8492,4.8506,4.8498,4.8508,4.8508,4.8489,4.8507,4.8514,4.8582,4.8598,4.8604,4.8619,4.8528,4.8528,4.8528,4.8529,4.8559,4.8583,4.8559,4.859,4.8576,4.8602,4.8597,4.8584,4.8606,4.8575,4.8589,4.8556,4.8616,4.8628,4.8531,4.8531,4.8531,4.853,4.853,4.8622,4.8631,4.8632,4.8652,4.8669,4.8656,4.8679,4.8665,4.8651,4.8665,4.8671,4.8671,4.8668,4.8669,4.8669,4.867,4.867,4.867,4.867,4.8686,4.8686,4.8707,4.8715,4.8723,4.8732,4.8726,4.8734,4.8738,4.8726,4.8726,4.8706,4.8625,4.8604,4.8674,4.8673,4.8673,4.8672,4.8672,4.8775,4.8754,4.8787,4.8795,4.8804,4.8822,4.8805,4.8821,4.8825,4.8838,4.8815,4.8757,4.8746,4.8739,4.8722,4.8818,4.8818,4.8818,4.8818,4.8828,4.8822,4.8854,4.8868,4.888,4.8868,4.8907,4.8904,4.8897,4.8899,4.8884,4.886,4.8854,4.8846,4.8837,4.8821,4.894,4.894,4.894,4.8883,4.8878,4.8913,4.8907,4.8914,4.892,4.8956,4.8974,4.8961,4.8944,4.8901,4.8896,4.8858,4.8846,4.8828,4.8813,4.8784,0,0]}]]